When you browse on this site, cookies collect data to enhance your experience and personalize the content and advertising you see.
Visit our Privacy Policy to learn more. By continuing to use the site, you agree to this use of cookies and data.
  • In Latvia
  • List of Countries
  • For 7 days
  • Water Temperature
  • Satellite Maps
  • Weather Map
  • Weather Widgets
  • user-avatar
    Login

    Hourly Weather Novostepnoe

    Today, 17 June, Monday

    Time Temperature Precipitation Wind Pressure Humidity
    00:00 +18°C° 0 mm 2 mps 754 mmHg 67%
    01:00 +17°C° 0 mm 2 mps 754 mmHg 69%
    02:00 +17°C° 0 mm 2 mps 754 mmHg 72%
    03:00 +17°C° 0 mm 2 mps 754 mmHg 76%
    04:00 +18°C° 0 mm 3 mps 755 mmHg 71%
    05:00 +18°C° 0 mm 4 mps 755 mmHg 67%
    06:00 +19°C° 0 mm 5 mps 755 mmHg 63%
    07:00 +21°C° 0 mm 5 mps 755 mmHg 58%
    08:00 +22°C° 0 mm 5 mps 756 mmHg 53%
    09:00 +25°C° 0 mm 5 mps 756 mmHg 48%
    10:00 +25°C° 0 mm 5 mps 756 mmHg 44%
    11:00 +26°C° 0 mm 4 mps 756 mmHg 40%
    12:00 +27°C° 0 mm 4 mps 756 mmHg 36%
    13:00 +27°C° 0 mm 4 mps 756 mmHg 35%
    14:00 +27°C° 0 mm 4 mps 756 mmHg 34%
    15:00 +28°C° 0 mm 3 mps 756 mmHg 32%
    16:00 +28°C° 0 mm 3 mps 756 mmHg 34%
    17:00 +27°C° 0 mm 3 mps 756 mmHg 37%
    18:00 +27°C° 0 mm 3 mps 756 mmHg 39%
    19:00 +25°C° 0 mm 3 mps 756 mmHg 43%
    20:00 +22°C° 0 mm 3 mps 756 mmHg 48%
    21:00 +20°C° 0 mm 3 mps 756 mmHg 53%
    22:00 +20°C° 0 mm 3 mps 756 mmHg 56%
    23:00 +19°C° 0 mm 3 mps 757 mmHg 59%

    Tomorrow, 18 June, Tuesday

    Time Temperature Precipitation Wind Pressure Humidity
    00:00 +18°C° 0 mm 2 mps 757 mmHg 62%
    01:00 +17°C° 0 mm 2 mps 757 mmHg 65%
    02:00 +17°C° 0 mm 2 mps 757 mmHg 68%
    03:00 +16°C° 0 mm 1 mps 757 mmHg 72%
    04:00 +19°C° 0 mm 1 mps 757 mmHg 66%
    05:00 +20°C° 0 mm 1 mps 757 mmHg 60%
    06:00 +20°C° 0 mm 0 mps 757 mmHg 55%
    07:00 +23°C° 0 mm 1 mps 757 mmHg 50%
    08:00 +25°C° 0 mm 1 mps 757 mmHg 46%
    09:00 +26°C° 0 mm 2 mps 757 mmHg 41%
    10:00 +27°C° 0 mm 2 mps 757 mmHg 39%
    11:00 +28°C° 0 mm 2 mps 757 mmHg 36%
    12:00 +29°C° 0 mm 3 mps 756 mmHg 34%
    13:00 +29°C° 0 mm 3 mps 756 mmHg 34%
    14:00 +29°C° 0 mm 3 mps 756 mmHg 34%
    15:00 +29°C° 0 mm 3 mps 755 mmHg 34%
    16:00 +29°C° 0 mm 3 mps 755 mmHg 36%
    17:00 +28°C° 0 mm 3 mps 755 mmHg 39%
    18:00 +28°C° 0 mm 4 mps 755 mmHg 42%
    19:00 +26°C° 0 mm 3 mps 755 mmHg 47%
    20:00 +24°C° 0 mm 3 mps 755 mmHg 52%
    21:00 +21°C° 0 mm 2 mps 755 mmHg 57%
    22:00 +20°C° 0 mm 2 mps 755 mmHg 60%
    23:00 +19°C° 0 mm 2 mps 755 mmHg 63%

    Day after tomorrow, 19 June, Wednesday

    Time Temperature Precipitation Wind Pressure Humidity
    00:00 +20°C° 0 mm 1 mps 755 mmHg 67%
    01:00 +19°C° 0 mm 1 mps 755 mmHg 70%
    02:00 +18°C° 0 mm 1 mps 755 mmHg 73%
    03:00 +16°C° 0 mm 0 mps 755 mmHg 76%
    04:00 +20°C° 0 mm 1 mps 755 mmHg 70%
    05:00 +22°C° 0 mm 1 mps 755 mmHg 64%
    06:00 +23°C° 0 mm 1 mps 755 mmHg 57%
    07:00 +25°C° 0 mm 1 mps 755 mmHg 53%
    08:00 +26°C° 0 mm 1 mps 755 mmHg 49%
    09:00 +27°C° 0 mm 1 mps 755 mmHg 44%
    10:00 +28°C° 0 mm 1 mps 755 mmHg 42%
    11:00 +29°C° 0 mm 1 mps 755 mmHg 39%
    12:00 +30°C° 0 mm 1 mps 755 mmHg 36%
    13:00 +30°C° 0 mm 1 mps 754 mmHg 36%
    14:00 +31°C° 0 mm 2 mps 754 mmHg 35%
    15:00 +31°C° 0 mm 2 mps 754 mmHg 35%
    16:00 +30°C° 0 mm 3 mps 754 mmHg 41%
    17:00 +29°C° 0 mm 4 mps 754 mmHg 47%
    18:00 +28°C° 0 mm 4 mps 754 mmHg 53%
    19:00 +27°C° 0.1 mm 4 mps 754 mmHg 59%
    20:00 +25°C° 0.1 mm 3 mps 754 mmHg 65%
    21:00 +24°C° 0.1 mm 3 mps 755 mmHg 70%
    22:00 +22°C° 0.3 mm 3 mps 755 mmHg 73%
    23:00 +21°C° 0.3 mm 3 mps 755 mmHg 75%

    20 June, Thursday

    Time Temperature Precipitation Wind Pressure Humidity
    00:00 +20°C° 0.3 mm 3 mps 755 mmHg 77%
    01:00 +20°C° 0 mm 3 mps 755 mmHg 78%
    02:00 +19°C° 0 mm 3 mps 755 mmHg 78%
    03:00 +19°C° 0 mm 3 mps 755 mmHg 79%
    04:00 +20°C° 0 mm 3 mps 755 mmHg 75%
    05:00 +21°C° 0 mm 4 mps 756 mmHg 72%
    06:00 +22°C° 0 mm 4 mps 756 mmHg 68%
    07:00 +23°C° 0 mm 4 mps 756 mmHg 62%
    08:00 +26°C° 0 mm 5 mps 756 mmHg 55%
    09:00 +27°C° 0 mm 5 mps 756 mmHg 49%
    10:00 +28°C° 0 mm 5 mps 756 mmHg 46%
    11:00 +29°C° 0 mm 5 mps 756 mmHg 42%
    12:00 +30°C° 0 mm 5 mps 756 mmHg 39%
    13:00 +30°C° 0 mm 5 mps 756 mmHg 38%
    14:00 +32°C° 0 mm 5 mps 756 mmHg 36%
    15:00 +32°C° 0 mm 5 mps 756 mmHg 35%
    16:00 +32°C° 0 mm 5 mps 756 mmHg 37%
    17:00 +30°C° 0 mm 5 mps 756 mmHg 40%
    18:00 +29°C° 0 mm 5 mps 757 mmHg 42%
    19:00 +27°C° 0 mm 5 mps 757 mmHg 46%
    20:00 +25°C° 0 mm 4 mps 757 mmHg 51%
    21:00 +23°C° 0 mm 4 mps 758 mmHg 55%
    22:00 +22°C° 0 mm 4 mps 758 mmHg 58%
    23:00 +21°C° 0 mm 3 mps 758 mmHg 61%

    21 June, Friday

    Time Temperature Precipitation Wind Pressure Humidity
    00:00 +21°C° 0 mm 3 mps 758 mmHg 64%
    01:00 +20°C° 0 mm 3 mps 758 mmHg 67%
    02:00 +20°C° 0 mm 3 mps 758 mmHg 70%
    03:00 +20°C° 0 mm 3 mps 759 mmHg 72%
    04:00 +21°C° 0 mm 4 mps 759 mmHg 71%
    05:00 +21°C° 0 mm 4 mps 759 mmHg 70%
    06:00 +22°C° 0 mm 4 mps 759 mmHg 68%
    07:00 +25°C° 0 mm 4 mps 759 mmHg 62%
    08:00 +27°C° 0 mm 5 mps 760 mmHg 55%
    09:00 +28°C° 0 mm 5 mps 760 mmHg 48%
    10:00 +29°C° 0 mm 5 mps 760 mmHg 44%
    11:00 +30°C° 0 mm 5 mps 760 mmHg 39%
    12:00 +32°C° 0 mm 5 mps 759 mmHg 35%
    13:00 +33°C° 0 mm 5 mps 759 mmHg 34%
    14:00 +33°C° 0 mm 5 mps 759 mmHg 32%
    15:00 +33°C° 0 mm 5 mps 759 mmHg 31%
    16:00 +33°C° 0 mm 5 mps 759 mmHg 34%
    17:00 +32°C° 0 mm 5 mps 759 mmHg 37%
    18:00 +30°C° 0 mm 4 mps 759 mmHg 40%
    19:00 +28°C° 0 mm 4 mps 759 mmHg 44%
    20:00 +27°C° 0 mm 4 mps 759 mmHg 49%
    21:00 +25°C° 0 mm 4 mps 760 mmHg 53%
    22:00 +23°C° 0 mm 4 mps 760 mmHg 55%
    23:00 +23°C° 0 mm 4 mps 760 mmHg 57%

    22 June, Saturday

    Time Temperature Precipitation Wind Pressure Humidity
    00:00 +22°C° 0 mm 3 mps 760 mmHg 59%
    01:00 +22°C° 0 mm 3 mps 760 mmHg 61%
    02:00 +21°C° 0 mm 3 mps 760 mmHg 63%
    03:00 +21°C° 0 mm 3 mps 760 mmHg 66%
    04:00 +22°C° 0 mm 3 mps 761 mmHg 64%
    05:00 +22°C° 0 mm 3 mps 761 mmHg 63%
    06:00 +24°C° 0 mm 3 mps 761 mmHg 61%
    07:00 +26°C° 0 mm 4 mps 761 mmHg 55%
    08:00 +27°C° 0 mm 4 mps 761 mmHg 49%
    09:00 +29°C° 0 mm 4 mps 761 mmHg 43%
    10:00 +30°C° 0 mm 4 mps 761 mmHg 40%
    11:00 +30°C° 0 mm 4 mps 761 mmHg 37%
    12:00 +32°C° 0 mm 4 mps 761 mmHg 34%
    13:00 +33°C° 0 mm 4 mps 761 mmHg 33%
    14:00 +33°C° 0 mm 4 mps 760 mmHg 32%
    15:00 +33°C° 0 mm 4 mps 760 mmHg 31%
    16:00 +33°C° 0 mm 4 mps 760 mmHg 33%
    17:00 +32°C° 0 mm 4 mps 760 mmHg 35%
    18:00 +32°C° 0 mm 4 mps 760 mmHg 37%
    19:00 +29°C° 0 mm 3 mps 760 mmHg 41%
    20:00 +27°C° 0 mm 3 mps 761 mmHg 45%
    21:00 +25°C° 0 mm 3 mps 761 mmHg 49%
    22:00 +24°C° 0 mm 3 mps 761 mmHg 51%
    23:00 +22°C° 0 mm 3 mps 761 mmHg 52%
    Show more